Stündliche Wetter Holstebro

Heute, 15 Juni, Dienstag

Zeit Temperatur Niederschläge Wind Luftdruck Luftfeuchtigkeit
00:00 +10°C° 0 mm 4 m/S 761 mmHg 86%
01:00 +10°C° 0 mm 4 m/S 761 mmHg 85%
02:00 +10°C° 0 mm 4 m/S 761 mmHg 86%
03:00 +10°C° 0 mm 4 m/S 761 mmHg 86%
04:00 +10°C° 0 mm 4 m/S 761 mmHg 86%
05:00 +10°C° 0 mm 5 m/S 761 mmHg 84%
06:00 +12°C° 0 mm 5 m/S 762 mmHg 81%
07:00 +13°C° 0 mm 5 m/S 762 mmHg 79%
08:00 +14°C° 0 mm 5 m/S 762 mmHg 75%
09:00 +14°C° 0 mm 6 m/S 762 mmHg 70%
10:00 +15°C° 0 mm 6 m/S 762 mmHg 66%
11:00 +15°C° 0 mm 6 m/S 763 mmHg 66%
12:00 +15°C° 0 mm 6 m/S 763 mmHg 65%
13:00 +15°C° 0 mm 6 m/S 763 mmHg 65%
14:00 +15°C° 0 mm 6 m/S 763 mmHg 66%
15:00 +15°C° 0 mm 6 m/S 762 mmHg 67%
16:00 +14°C° 0 mm 5 m/S 762 mmHg 67%
17:00 +14°C° 0 mm 5 m/S 762 mmHg 71%
18:00 +13°C° 0 mm 4 m/S 762 mmHg 74%
19:00 +13°C° 0 mm 4 m/S 762 mmHg 78%
20:00 +11°C° 0 mm 4 m/S 762 mmHg 81%
21:00 +10°C° 0 mm 3 m/S 762 mmHg 85%
22:00 +9°C° 0 mm 3 m/S 762 mmHg 89%
23:00 +9°C° 0 mm 3 m/S 762 mmHg 90%

Morgen, 16 Juni, Mittwoch

Zeit Temperatur Niederschläge Wind Luftdruck Luftfeuchtigkeit
00:00 +9°C° 0 mm 3 m/S 762 mmHg 91%
01:00 +9°C° 0 mm 3 m/S 762 mmHg 91%
02:00 +8°C° 0 mm 3 m/S 762 mmHg 92%
03:00 +8°C° 0 mm 3 m/S 761 mmHg 92%
04:00 +8°C° 0 mm 3 m/S 761 mmHg 93%
05:00 +10°C° 0 mm 3 m/S 761 mmHg 89%
06:00 +11°C° 0 mm 4 m/S 761 mmHg 85%
07:00 +13°C° 0 mm 4 m/S 761 mmHg 82%
08:00 +14°C° 0 mm 4 m/S 761 mmHg 76%
09:00 +15°C° 0 mm 4 m/S 761 mmHg 71%
10:00 +17°C° 0 mm 4 m/S 761 mmHg 65%
11:00 +18°C° 0 mm 4 m/S 761 mmHg 63%
12:00 +19°C° 0 mm 4 m/S 761 mmHg 61%
13:00 +19°C° 0 mm 4 m/S 761 mmHg 59%
14:00 +20°C° 0 mm 3 m/S 760 mmHg 58%
15:00 +20°C° 0 mm 3 m/S 760 mmHg 57%
16:00 +20°C° 0 mm 3 m/S 760 mmHg 56%
17:00 +20°C° 0 mm 2 m/S 760 mmHg 61%
18:00 +20°C° 0 mm 2 m/S 760 mmHg 66%
19:00 +20°C° 0 mm 1 m/S 760 mmHg 70%
20:00 +18°C° 0 mm 2 m/S 760 mmHg 76%
21:00 +16°C° 0 mm 2 m/S 760 mmHg 82%
22:00 +14°C° 0 mm 2 m/S 760 mmHg 87%
23:00 +13°C° 0 mm 3 m/S 760 mmHg 89%

übermorgen, 17 Juni, Donnerstag

Zeit Temperatur Niederschläge Wind Luftdruck Luftfeuchtigkeit
00:00 +13°C° 0 mm 3 m/S 760 mmHg 90%
01:00 +13°C° 0 mm 3 m/S 760 mmHg 92%
02:00 +13°C° 0 mm 3 m/S 760 mmHg 88%
03:00 +14°C° 0 mm 3 m/S 759 mmHg 85%
04:00 +16°C° 0 mm 3 m/S 759 mmHg 81%
05:00 +16°C° 0 mm 3 m/S 759 mmHg 82%
06:00 +17°C° 0 mm 3 m/S 759 mmHg 83%
07:00 +17°C° 0 mm 3 m/S 759 mmHg 84%
08:00 +19°C° 0 mm 3 m/S 759 mmHg 80%
09:00 +20°C° 0 mm 4 m/S 759 mmHg 77%
10:00 +22°C° 0 mm 4 m/S 759 mmHg 73%
11:00 +23°C° 0 mm 4 m/S 759 mmHg 70%
12:00 +25°C° 0 mm 5 m/S 759 mmHg 67%
13:00 +27°C° 0 mm 5 m/S 759 mmHg 65%
14:00 +27°C° 0 mm 5 m/S 759 mmHg 67%
15:00 +27°C° 0 mm 5 m/S 758 mmHg 69%
16:00 +27°C° 0 mm 5 m/S 758 mmHg 72%
17:00 +26°C° 0.4 mm 5 m/S 758 mmHg 75%
18:00 +25°C° 0.4 mm 4 m/S 758 mmHg 79%
19:00 +25°C° 0.4 mm 4 m/S 758 mmHg 83%
20:00 +22°C° 0.1 mm 4 m/S 758 mmHg 86%
21:00 +21°C° 0.1 mm 4 m/S 758 mmHg 89%
22:00 +20°C° 0.1 mm 5 m/S 758 mmHg 92%
23:00 +19°C° 0 mm 5 m/S 757 mmHg 91%

18 Juni, Freitag

Zeit Temperatur Niederschläge Wind Luftdruck Luftfeuchtigkeit
00:00 +19°C° 0 mm 5 m/S 757 mmHg 90%
01:00 +17°C° 0 mm 5 m/S 756 mmHg 89%
02:00 +17°C° 0 mm 5 m/S 756 mmHg 90%
03:00 +18°C° 0 mm 4 m/S 756 mmHg 91%
04:00 +18°C° 0 mm 4 m/S 755 mmHg 91%
05:00 +20°C° 0 mm 4 m/S 755 mmHg 89%
06:00 +21°C° 0 mm 4 m/S 755 mmHg 86%
07:00 +22°C° 0 mm 4 m/S 755 mmHg 83%
08:00 +25°C° 0 mm 4 m/S 755 mmHg 78%
09:00 +26°C° 0 mm 4 m/S 755 mmHg 74%
10:00 +27°C° 0 mm 4 m/S 755 mmHg 70%
11:00 +27°C° 0 mm 4 m/S 755 mmHg 68%
12:00 +28°C° 0 mm 4 m/S 755 mmHg 67%
13:00 +28°C° 0 mm 4 m/S 755 mmHg 66%
14:00 +28°C° 0.2 mm 4 m/S 755 mmHg 68%
15:00 +27°C° 0.2 mm 4 m/S 755 mmHg 71%
16:00 +27°C° 0.2 mm 4 m/S 755 mmHg 74%
17:00 +26°C° 0.3 mm 3 m/S 755 mmHg 78%
18:00 +24°C° 0.3 mm 3 m/S 755 mmHg 82%
19:00 +23°C° 0.3 mm 2 m/S 755 mmHg 87%
20:00 +21°C° 0.1 mm 2 m/S 755 mmHg 90%
21:00 +20°C° 0.1 mm 2 m/S 755 mmHg 94%
22:00 +18°C° 0.1 mm 2 m/S 755 mmHg 97%
23:00 +18°C° 0.4 mm 2 m/S 755 mmHg 97%

19 Juni, Samstag

Zeit Temperatur Niederschläge Wind Luftdruck Luftfeuchtigkeit
00:00 +18°C° 0.4 mm 3 m/S 755 mmHg 97%
01:00 +18°C° 0.4 mm 3 m/S 755 mmHg 98%
02:00 +18°C° 0.4 mm 3 m/S 754 mmHg 98%
03:00 +17°C° 0.4 mm 3 m/S 754 mmHg 98%
04:00 +17°C° 0.4 mm 3 m/S 754 mmHg 97%
05:00 +17°C° 0 mm 3 m/S 754 mmHg 96%
06:00 +17°C° 0 mm 4 m/S 754 mmHg 95%
07:00 +17°C° 0 mm 4 m/S 755 mmHg 93%
08:00 +17°C° 0 mm 4 m/S 755 mmHg 92%
09:00 +17°C° 0 mm 4 m/S 755 mmHg 91%
10:00 +16°C° 0 mm 5 m/S 755 mmHg 90%
11:00 +15°C° 0.1 mm 5 m/S 756 mmHg 89%
12:00 +15°C° 0.1 mm 5 m/S 756 mmHg 89%
13:00 +14°C° 0.1 mm 6 m/S 756 mmHg 88%
14:00 +15°C° 0 mm 6 m/S 757 mmHg 84%
15:00 +15°C° 0 mm 7 m/S 757 mmHg 80%
16:00 +15°C° 0 mm 7 m/S 758 mmHg 76%
17:00 +15°C° 0 mm 7 m/S 758 mmHg 77%
18:00 +14°C° 0 mm 6 m/S 758 mmHg 79%
19:00 +14°C° 0 mm 5 m/S 759 mmHg 80%
20:00 +13°C° 0 mm 5 m/S 759 mmHg 83%
21:00 +12°C° 0 mm 5 m/S 759 mmHg 85%
22:00 +11°C° 0 mm 4 m/S 760 mmHg 87%
23:00 +11°C° 0 mm 4 m/S 760 mmHg 87%

20 Juni, Sonntag

Zeit Temperatur Niederschläge Wind Luftdruck Luftfeuchtigkeit
00:00 +11°C° 0 mm 3 m/S 760 mmHg 86%
01:00 +11°C° 0 mm 3 m/S 760 mmHg 85%
02:00 +12°C° 0 mm 2 m/S 760 mmHg 84%
03:00 +12°C° 0 mm 2 m/S 760 mmHg 84%
04:00 +12°C° 0 mm 2 m/S 759 mmHg 84%
05:00 +12°C° 0 mm 1 m/S 759 mmHg 81%
06:00 +13°C° 0 mm 1 m/S 759 mmHg 78%
07:00 +14°C° 0 mm 1 m/S 759 mmHg 76%
08:00 +14°C° 0 mm 1 m/S 759 mmHg 74%
09:00 +15°C° 0 mm 1 m/S 759 mmHg 72%
10:00 +15°C° 0 mm 1 m/S 759 mmHg 70%
11:00 +15°C° 0 mm 1 m/S 759 mmHg 70%
12:00 +15°C° 0 mm 1 m/S 759 mmHg 70%
13:00 +15°C° 0 mm 1 m/S 759 mmHg 70%
14:00 +15°C° 0 mm 1 m/S 758 mmHg 72%
15:00 +15°C° 0 mm 1 m/S 758 mmHg 74%
16:00 +15°C° 0 mm 1 m/S 758 mmHg 76%
17:00 +15°C° 0 mm 2 m/S 758 mmHg 77%
18:00 +15°C° 0 mm 2 m/S 758 mmHg 77%
19:00 +15°C° 0 mm 2 m/S 758 mmHg 77%
20:00 +15°C° 0 mm 2 m/S 758 mmHg 79%
21:00 +15°C° 0 mm 2 m/S 757 mmHg 81%
22:00 +15°C° 0 mm 2 m/S 757 mmHg 83%
23:00 +15°C° 0 mm 2 m/S 757 mmHg 85%
Mehr zeigen

Wir brauchen deine Erlaubnis

Meteoprog und unser Service Anbieter werden persönliche Daten aufbewahren, so wie Cookies, Geräte Bezeichnung oder ähnliche Technologien von deinem Gerät und Prozess, so wie Persönliche Daten Inhalte und Werbungen, genauso wie social Media und den Verkehr zu analysieren.

  • Aufbewahrung und/oder Zugang zu deiner Geräte Informationen.

    Cookies, Geräte Bezeichnung oder andere Informationen, können aufbewahrt oder Zugang zu deinem Gerät erhalten, für den Grund, der oben angegeben wird.

  • Personalisierte Werbung und Inhalte, Messungen, Einblick in das Publikum und Produkt Entwicklung.

    Werbungen und Inhalte können personalisiert werden, basierend auf ein Profil. Mehr Daten können besser personalisierte Werbungen und Inhalte hinzufügen. Werbung und Inhalte können gezeigt und gemessen werden. Einblicke über das Publikum, welche die Werbung gesehen haben und den Inhalt, können abgeleitet werden. So wie Daten können genutzt werden, um es zu verbessern oder die Benutzer Erfahrung zu verbessern das System und die Software.

Wenn du “Ich stimme zu” klickst, erlaubst du uns, die Cookies zu benutzen die Geräte Bezeichnung, den Web oder ähnliche Technologien zu benutzen. Deine Settings, können in deinem Gerät bei deinem Browser geändert werden.

Für den bestimmten Zweck, berechtigten Interessen beruhen darauf, mehr als auf den Inhalt. Du kannst mehr darüber in unseren Privaten und Cookie Politik lesen.